DMSP 5D-2 F13 DEB, 42259

Orbit data source: Space-Track

DMSP 5D-2 F13 DEB, 42259 is space debris in SSO originally from a launch on Fri, 24 Mar 1995 UTC launched from the Air Force Western Test Range (AFWTR). Debris objects in space refer to the collection of defunct objects orbiting the Earth. Examples of debris include non-operational satellites, rocket bodies, and fragments generated from explosions, collisions, or faulty payload assembly.

Loading next visibility...
Identifier
42259, 1995-015FZ
Orbit
SSO
Country
Flag of USUS
Related business
Manufacturer
Unknown
Mission
Spacecraft
Bus & Motor
Unknown
Mass
Unknown
Launch date (UTC)
1995-03-24 (31 years ago)
Launch vehicle
Unknown
Launch site
Air Force Western Test Range (AFWTR)
Object type
Payload
Rocket body
Debris
Shape & HBR
Unknown shape, 0.1 m
Radar Cross Section
Small (<0.1 m²)

Expand to show TLE details & history
Last TLE update: 1 day ago

TLE from 1 day ago
0 DMSP 5D-2 F13 DEB
1 42259U 95015FZ  25287.54080551  .00004072  00000-0  14428-2 0  9998
2 42259  98.6570 316.6803 0008808 280.6117  79.4076 14.35048892525880
Epoch: 2025-10-14T12:58Z
TLE epoch observation values (Epoch: 2025-10-14T12:58:45.596Z)
Latitude
0.00003°
Longitude
98.66255°
Altitude
776.688 km
Speed
7.466 km/s
True Right ascension
21h 06m 43s
True Declination
0° 00' 00"
Sunlit
Object was in daylight at epoch
Visualization orbit readout
Latitude
Unknown
Longitude
Unknown
Altitude
Unknown
Speed
Unknown
Apparent Right ascension
Unknown
Apparent Declination
Unknown
Sunlit
N/A
Visualization observer readout
Local Sidereal Time
12:41:19
Azimuth
Unknown
Elevation
Unknown
Doppler factor
Unknown
Orbital elements
Apogee altitude
778.338 km
Perigee altitude
765.742 km
Semi-major axis
7,150.177 km
Eccentricity
0.00088
Inclination
98.657°
RAAN
316.6803°
Arg. of periapsis
280.6117°
True anomaly
79.50683°
Mean anomaly
79.4076°
Eccentric anomaly
79.45721°
Mean motion
3.58978 °/min
Orbital period
100.28 mins
BSTAR
0.0014428

Documentation

Showing up to 5 results
|